Vorticity
10 12 8 5 7 9 11 9 7 7 7 8 9 9 9 9 10 9 9 9 10 9 9 8 9 9 10 10 9 8 7 7 7 7 8 8 7 7 6 7 7 7 7 7 7 7 6 6 5 4 4 5 6 6 6 6 6 7 8 9 11 12 14 17 18 18 17 14 11 11 10 10 11 11 9 9 10 10 10 10 8 6 8 8 3 2 6
7 7 7 9 11 11 9 6 6 8 8 9 10 9 9 9 8 8 9 9 10 9 8 8 9 9 9 9 8 7 7 7 7 7 6 6 6 6 6 6 6 6 6 7 7 6 6 5 4 4 5 5 6 6 6 6 7 9 10 12 14 17 18 17 15 13 12 11 10 10 11 13 12 11 11 10 10 9 9 8 5 5 7 6 3 4 7
6 5 7 11 12 8 5 5 8 9 9 10 9 8 8 8 9 9 10 9 9 8 9 8 8 8 8 7 7 6 6 6 6 6 6 6 6 6 6 6 6 7 7 7 6 5 5 5 4 5 5 5 5 6 6 8 10 11 14 16 17 17 15 12 10 10 10 10 10 12 14 15 14 12 10 8 8 8 7 6 7 6 5 6 7 5 5
6 7 9 11 9 6 6 9 10 9 8 8 7 8 9 10 9 9 8 8 7 8 8 8 7 6 6 6 6 6 6 6 5 5 6 6 6 7 8 8 8 8 6 5 4 4 4 5 5 5 5 5 6 7 9 12 14 15 16 16 14 13 11 9 9 10 10 11 10 11 11 11 10 8 7 7 8 7 8 7 8 6 2 6 10 4 4
7 10 10 9 7 8 10 10 8 7 7 7 9 11 10 8 8 7 7 7 7 7 7 7 6 6 5 5 5 5 5 5 6 7 7 8 9 9 9 7 6 4 3 3 3 4 5 5 4 4 6 7 9 12 14 15 16 15 14 12 10 10 10 9 11 12 12 10 9 9 8 7 7 7 7 7 6 7 9 8 6 5 3 7 9 5 7
9 10 10 9 9 10 9 7 6 7 8 10 12 10 7 7 7 7 6 6 6 7 6 5 5 5 5 5 5 6 6 7 9 9 10 9 8 7 5 4 3 2 2 4 5 5 5 4 5 7 10 12 14 16 16 15 14 13 11 10 9 10 11 11 12 12 10 8 8 8 8 7 7 6 6 6 6 7 8 6 5 7 7 8 9 8 10
12 12 11 10 9 7 5 6 8 9 10 11 9 7 6 6 6 6 5 5 6 5 4 5 5 5 5 7 8 10 10 11 10 8 7 6 5 4 3 2 2 3 5 6 5 5 5 6 10 13 15 16 16 15 14 13 12 10 10 11 10 11 11 11 10 10 9 9 9 8 8 7 6 6 6 6 6 6 6 8 10 11 10 9 8 9 10
12 11 8 6 6 6 7 9 10 9 9 8 6 5 5 5 5 5 5 4 4 5 5 6 8 9 10 11 12 11 9 7 6 5 5 4 3 3 2 3 5 6 6 5 4 6 9 13 16 17 17 16 14 13 13 11 11 11 11 11 10 10 10 9 9 10 10 10 9 7 6 6 5 6 6 6 6 7 10 13 14 10 7 8 7 8 7
8 5 5 5 6 8 9 9 8 7 6 5 4 4 4 4 5 5 5 7 8 10 11 12 12 13 12 9 7 5 3 3 4 4 4 3 3 4 5 6 6 5 5 6 9 14 16 18 18 16 15 14 12 12 12 11 11 11 11 10 9 9 9 9 10 10 9 7 6 6 5 5 7 7 7 8 9 10 12 13 13 8 6 6 6 5 5
3 4 6 8 9 9 8 7 5 5 4 4 4 5 6 8 9 11 12 13 14 13 12 10 8 7 5 4 2 2 3 4 4 4 3 4 5 6 6 6 5 7 10 14 17 19 18 17 16 14 13 13 12 12 12 11 11 10 9 9 9 10 10 9 8 7 6 5 5 7 7 8 9 8 8 10 10 10 11 11 9 7 6 8 7 6 7
7 8 9 9 7 6 6 5 5 5 6 8 9 10 12 13 14 14 12 10 9 7 4 3 4 4 3 2 3 4 5 5 4 4 4 5 5 6 7 9 12 15 18 19 19 17 16 15 14 13 13 12 11 11 10 10 10 9 10 10 10 9 7 6 5 4 5 7 7 8 9 8 7 8 10 12 10 8 7 6 5 4 4 6 7 7 9
9 9 8 7 6 6 7 7 8 9 10 12 12 13 13 12 9 8 6 4 3 2 2 3 4 4 3 3 5 5 5 3 3 4 5 7 10 12 15 18 20 21 20 18 16 15 13 13 13 12 11 10 10 10 9 10 10 10 10 9 8 6 4 4 4 5 7 8 7 8 8 6 8 11 12 11 9 7 6 6 7 5 3 4 5 7 8
9 8 8 8 8 8 9 10 11 12 12 11 10 9 8 4 3 3 2 3 3 3 5 5 5 4 5 5 4 3 2 5 9 13 16 19 21 22 23 22 20 18 16 14 13 12 11 11 10 9 9 10 10 10 10 10 10 8 8 6 5 5 5 5 6 7 8 7 8 11 11 9 12 12 8 6 4 4 3 3 2 1 2 6 6 5 5
8 8 8 8 10 11 12 12 11 9 8 6 4 4 3 2 3 4 4 5 6 5 6 6 6 5 4 2 2 5 12 19 23 25 26 25 24 22 20 18 15 13 12 11 11 10 10 9 9 10 11 11 10 10 9 8 7 6 5 5 5 6 7 7 8 8 8 8 9 9 8 8 10 8 4 4 5 5 7 7 5 4 6 9 7 4 3
8 9 10 11 12 11 9 8 6 3 2 2 3 4 5 6 7 7 7 8 7 5 6 5 2 1 2 6 13 21 27 27 24 23 21 19 18 16 14 13 11 10 10 10 10 11 11 11 11 11 11 10 8 7 6 5 5 5 5 6 7 8 8 9 9 10 10 11 10 8 6 6 8 6 6 8 9 10 9 8 8 9 9 8 6 4 4
11 12 11 9 7 5 3 2 2 2 3 5 6 7 8 8 8 8 8 7 5 4 2 -1 -1 6 13 20 26 27 22 18 17 16 15 13 13 12 11 10 10 10 11 11 12 12 11 10 10 9 8 6 5 5 4 4 5 7 8 8 9 9 9 10 11 11 11 11 12 11 10 10 10 8 8 9 9 7 4 5 7 8 6 5 4 2 3
10 8 5 3 1 1 2 3 4 6 7 8 8 9 9 8 7 7 5 3 2 -0 -2 2 12 20 22 23 22 18 13 12 13 12 11 11 10 10 10 11 11 12 12 12 11 10 8 7 6 6 6 5 4 4 5 6 8 9 9 9 9 10 10 10 11 11 11 10 11 9 8 9 10 9 7 7 6 4 5 8 8 4 2 1 1 3 4
3 2 1 2 2 4 6 7 8 9 9 9 8 7 7 5 4 3 2 1 0 0 5 16 24 23 19 16 14 11 10 11 11 10 11 10 10 11 11 12 12 11 10 9 7 6 5 5 5 5 5 4 4 6 7 9 10 10 9 10 10 10 10 10 10 10 10 9 8 7 6 7 9 8 7 6 4 3 4 5 4 4 4 3 3 4 5
2 3 4 6 7 8 9 9 9 9 8 7 6 5 5 3 3 2 1 1 3 8 17 24 23 17 14 12 10 9 10 10 10 11 12 11 12 12 11 10 9 7 7 6 5 4 4 5 5 4 4 5 6 9 10 10 10 10 9 9 8 8 10 10 8 9 10 8 6 5 5 5 5 4 3 4 5 6 5 3 3 5 6 5 5 5 4
6 7 8 9 8 8 8 7 7 7 6 5 5 4 2 1 1 1 3 7 13 19 23 21 17 14 11 9 9 10 11 10 12 13 12 12 11 10 9 7 6 5 6 5 4 5 5 5 5 5 6 8 9 11 10 9 9 9 8 8 9 9 11 10 9 10 9 6 5 6 5 5 5 3 2 3 5 7 6 5 5 4 4 5 5 4 3
9 8 8 8 7 6 5 5 5 5 4 4 3 3 3 4 7 10 13 18 21 21 19 16 13 12 10 10 11 11 10 12 13 12 11 9 7 6 6 6 4 4 4 4 4 5 6 5 6 7 9 10 10 10 9 9 9 9 8 10 11 10 10 9 9 9 7 5 5 5 5 7 7 5 6 7 7 7 6 6 6 4 3 3 2 2 2
7 6 5 5 4 5 5 6 7 8 9 10 11 12 14 16 18 20 21 21 20 18 16 14 12 11 11 11 11 10 11 12 11 9 7 6 6 6 5 4 4 4 5 5 6 6 6 7 9 10 10 10 9 9 9 9 9 9 10 12 12 10 10 9 8 8 8 7 6 5 6 7 6 6 7 7 5 4 2 2 2 2 2 2 2 3 3
6 6 7 8 9 11 11 12 13 14 15 17 18 20 21 21 20 19 18 17 15 13 12 11 11 10 11 11 11 10 10 10 8 6 6 5 5 5 5 4 5 5 6 7 7 7 8 10 10 10 10 9 9 9 9 9 10 11 11 11 10 9 9 8 8 8 7 6 6 6 7 6 4 3 4 2 0 -0 -1 -0 1 1 2 3 2 3 4
12 13 14 14 14 15 15 16 18 18 19 20 19 18 18 16 16 15 14 13 12 11 11 11 11 11 11 10 9 9 8 7 7 5 5 5 5 5 5 5 6 7 8 9 9 9 10 11 10 9 9 8 9 10 10 10 11 12 11 11 10 9 8 8 8 7 4 3 4 4 4 3 1 0 -0 -1 -1 0 1 2 2 2 2 2 2 4 6
15 15 15 15 16 18 19 20 20 18 17 15 14 14 14 13 14 13 13 12 11 11 12 11 10 10 9 7 8 7 6 5 5 4 4 5 5 5 6 7 8 9 10 10 11 11 11 9 8 8 9 9 10 10 10 11 11 10 10 10 8 7 6 6 5 4 3 3 3 3 2 2 1 1 2 2 3 3 2 3 4 3 3 3 3 7 11
15 16 17 19 20 21 19 16 14 13 13 13 12 12 12 13 13 12 11 11 10 10 9 9 8 7 6 6 6 5 4 4 5 5 6 7 6 7 9 10 11 11 11 12 11 10 8 7 7 9 10 10 10 10 11 12 11 9 9 9 7 6 6 6 5 5 5 4 2 2 2 1 1 3 4 5 5 5 4 4 3 2 2 5 9 15 21
15 17 20 21 19 16 13 12 12 13 14 13 11 10 10 11 11 10 9 9 8 8 7 7 6 5 5 6 6 5 5 6 7 7 8 8 9 10 11 11 12 12 11 10 8 7 7 7 9 10 10 10 11 11 12 11 9 9 9 8 6 6 6 6 5 5 4 3 4 6 7 6 6 5 5 5 5 4 3 2 2 5 11 18 24 28 32
15 18 21 21 17 14 13 12 13 14 14 13 11 10 9 9 9 8 8 7 7 6 6 6 6 6 6 7 8 7 8 8 8 9 10 10 11 12 12 12 11 9 8 7 6 7 8 9 10 10 10 10 11 11 11 10 9 9 8 7 7 7 6 5 5 5 5 6 7 7 8 8 7 6 5 4 3 2 2 6 12 20 28 32 34 35 36
13 15 17 18 16 14 14 13 13 14 13 13 12 12 11 10 10 9 9 8 8 8 8 8 9 8 8 9 9 9 10 10 11 12 12 12 13 12 11 10 8 7 7 7 8 10 10 10 11 11 10 11 12 11 11 10 8 7 8 8 7 6 5 4 5 6 7 7 7 6 6 6 5 3 2 1 2 5 11 19 27 33 36 37 37 35 32
11 11 12 12 13 14 14 13 13 13 12 12 12 11 10 10 10 9 9 9 9 8 8 9 9 9 10 10 11 11 12 13 14 14 13 12 11 10 8 8 7 7 7 9 10 11 11 10 11 10 10 11 12 12 10 8 8 9 9 7 5 4 4 5 6 7 7 6 6 6 5 3 2 1 2 6 11 17 24 31 36 39 39 36 32 26 21
10 10 9 8 9 10 10 10 9 9 9 10 10 9 9 8 8 8 8 8 8 8 8 9 9 10 10 11 11 12 13 13 13 12 11 10 9 8 7 7 7 8 9 11 11 10 10 10 10 11 12 12 12 11 10 8 8 8 6 3 4 5 5 6 6 6 7 6 6 5 3 3 4 5 8 15 22 28 35 41 41 38 32 26 20 14 11
9 9 9 9 9 9 9 8 7 7 7 8 7 7 7 6 7 8 7 7 8 9 9 10 10 10 11 11 11 11 11 11 10 9 8 8 7 7 7 7 8 10 10 10 9 9 9 10 11 12 12 11 11 11 8 6 6 5 3 4 6 6 5 6 6 6 6 5 4 3 2 4 7 10 15 25 32 37 40 39 34 26 20 15 11 9 9
11 11 10 10 10 11 10 8 8 8 9 9 9 8 7 7 9 9 9 10 11 11 12 13 13 13 12 11 11 11 10 10 9 7 7 7 7 7 8 8 9 10 10 9 9 9 10 11 11 11 11 10 10 8 5 4 5 5 6 7 7 6 6 7 7 6 4 2 2 4 4 8 14 20 28 36 40 39 36 30 22 16 12 9 9 9 9
14 14 13 13 12 12 11 10 10 11 11 11 11 11 11 12 12 13 13 14 14 14 15 15 15 14 12 11 10 10 9 8 7 7 7 7 7 8 9 9 9 9 9 9 9 10 11 12 11 10 9 9 8 6 4 5 6 6 6 6 6 6 7 6 4 3 1 1 4 7 10 17 26 32 37 41 39 33 26 18 12 10 8 7 8 8 7
16 16 15 15 14 14 14 14 13 13 12 12 13 13 14 16 16 15 15 15 14 14 14 14 13 11 11 10 9 8 8 7 7 7 7 7 8 8 8 8 8 9 9 9 9 10 11 11 9 10 10 8 6 5 5 7 7 6 6 7 7 7 7 5 2 1 1 4 9 13 18 26 33 35 37 37 32 23 16 10 7 7 8 7 6 7 7
16 16 15 15 15 16 15 15 15 15 15 15 14 15 15 16 17 16 15 13 12 11 10 10 9 8 9 8 8 7 7 6 6 7 7 7 8 8 8 9 9 9 10 10 9 10 11 11 10 11 9 7 6 7 7 7 7 7 7 8 7 7 6 4 2 2 5 10 15 18 23 30 34 35 33 29 21 13 8 7 6 7 6 6 6 8 8
14 14 14 15 16 15 15 14 15 17 17 16 16 16 16 15 15 16 14 12 11 10 8 8 8 8 8 8 7 7 8 7 7 7 7 8 9 9 8 9 9 9 9 9 9 10 11 11 10 9 8 7 7 7 7 7 7 7 8 7 7 5 4 3 4 6 9 12 15 18 22 28 31 31 26 18 11 7 6 6 6 5 5 6 7 7 7
10 11 12 13 14 14 15 15 15 16 17 18 18 18 17 15 15 15 14 12 10 9 8 8 9 9 7 7 7 8 8 7 7 8 8 8 9 9 8 9 9 8 9 10 10 11 11 10 9 9 8 8 7 7 7 8 7 7 7 6 5 4 3 3 5 7 9 12 16 21 27 33 34 31 22 12 6 5 5 5 6 6 6 6 6 6 7
6 7 9 11 11 12 14 15 15 15 18 19 18 18 18 17 16 15 13 12 11 10 9 9 10 9 7 7 8 9 8 8 8 8 8 8 8 8 8 8 8 9 12 13 12 12 12 11 10 9 9 8 7 7 8 7 7 7 6 5 4 4 3 2 4 7 10 15 22 30 35 37 33 27 18 9 4 4 6 6 6 6 6 7 7 7 9
3 4 6 8 9 11 13 14 14 16 18 17 16 17 18 18 17 16 15 14 13 13 12 10 10 9 9 9 9 9 8 8 8 7 8 8 8 8 9 9 10 12 13 11 11 12 12 10 9 9 8 7 7 7 7 7 6 6 5 3 4 4 2 1 4 8 13 19 26 32 34 29 20 14 9 5 4 5 6 6 6 7 7 7 8 9 10
3 3 5 5 5 8 11 11 12 16 18 16 15 15 15 15 15 14 14 14 13 12 12 12 11 10 10 9 9 8 8 8 8 7 7 8 9 9 10 10 12 13 12 10 11 12 10 9 9 8 7 7 7 7 6 6 5 4 3 3 4 4 3 3 6 10 15 22 28 31 29 20 10 5 5 5 6 6 6 6 7 7 7 8 9 11 11
2 3 5 4 3 6 9 9 10 14 16 16 16 15 13 13 14 13 13 13 12 11 11 11 10 9 9 8 8 8 8 8 7 7 8 9 10 10 11 11 13 13 11 11 12 11 10 9 9 7 7 7 7 6 6 5 4 4 4 4 5 4 4 5 8 12 17 24 29 28 21 12 6 5 7 7 7 7 7 7 7 7 8 10 11 11 11
2 3 5 5 3 4 6 7 9 12 12 14 16 16 14 13 13 12 12 11 10 9 10 10 9 8 9 9 8 8 7 7 6 7 8 10 11 11 12 13 13 12 12 12 12 10 9 9 8 7 7 7 5 5 5 5 4 4 5 4 4 5 6 8 10 14 19 24 26 22 14 8 7 8 8 7 8 8 7 7 8 8 10 10 11 10 10
2 2 5 5 3 3 5 6 7 9 11 12 14 16 15 13 12 11 11 10 9 9 10 10 9 9 9 9 7 6 6 7 8 9 10 12 12 13 14 14 13 12 13 13 11 9 8 8 7 7 7 5 4 5 5 4 4 4 4 3 5 7 8 10 11 14 18 22 22 17 12 10 10 10 9 8 8 8 7 7 8 9 10 10 10 10 10
2 2 4 4 3 3 5 5 6 8 10 11 13 16 16 15 12 11 10 9 10 10 10 9 8 9 8 7 6 6 7 9 10 10 11 13 14 14 14 13 13 14 14 12 10 9 8 7 7 6 5 4 5 6 5 4 4 4 3 4 7 8 8 9 12 14 17 20 20 17 14 13 13 11 10 10 9 8 8 8 9 10 10 9 9 10 9
3 2 3 4 4 4 4 5 5 7 8 9 12 15 16 15 14 13 11 10 11 11 10 8 8 8 7 6 7 8 9 10 11 11 13 15 15 15 14 14 15 14 11 9 8 8 7 7 6 5 4 4 6 6 4 4 5 5 4 6 7 8 8 10 12 14 16 18 19 19 17 16 14 13 11 10 9 8 8 9 9 10 10 9 9 9 9
3 2 3 4 4 4 4 4 5 6 7 9 12 14 15 15 15 14 12 10 10 10 8 8 8 7 6 7 9 9 10 11 12 13 14 16 16 16 15 15 14 12 9 8 8 7 6 6 5 4 4 5 6 6 5 5 5 5 5 7 8 9 9 11 12 13 15 18 19 20 18 16 15 14 12 11 9 8 9 9 9 9 9 10 10 9 9
4 3 3 3 4 5 4 4 5 5 6 8 12 13 13 15 16 14 12 10 10 9 8 8 8 7 7 9 10 10 11 13 14 14 15 17 18 17 15 13 11 9 8 8 7 6 6 6 4 4 5 7 6 5 5 5 5 5 6 8 10 10 10 10 11 13 15 18 19 19 18 17 16 14 12 10 9 8 8 9 9 9 10 10 9 8 8
5 3 2 2 4 5 4 4 5 5 5 8 11 12 13 14 15 13 11 11 10 8 8 8 8 8 8 9 10 10 12 14 15 16 18 19 18 15 13 11 9 7 7 7 6 6 6 5 4 5 7 7 6 5 5 5 6 6 7 10 12 11 10 10 12 13 16 18 19 19 19 18 16 13 11 9 8 8 9 9 9 9 9 9 8 7 9
6 4 1 2 4 6 5 4 4 4 5 8 10 11 12 14 14 13 12 12 10 9 9 9 9 9 9 10 10 11 12 14 16 18 19 18 16 14 11 9 8 7 6 6 6 5 5 4 4 6 7 6 5 6 7 6 6 7 9 11 12 11 9 10 12 14 16 18 19 20 20 18 15 12 10 9 9 9 9 9 8 8 8 8 8 8 9
6 3 1 2 5 6 5 4 4 4 5 7 9 11 12 14 15 15 14 12 10 9 9 9 10 10 9 9 11 12 13 15 19 20 19 17 15 13 9 7 6 6 5 5 6 5 4 5 6 6 6 6 6 7 7 6 7 9 11 12 12 10 9 10 12 15 17 19 20 20 19 17 14 11 10 10 9 9 8 7 7 7 8 8 9 9 10
6 3 1 2 5 6 4 4 4 4 4 6 8 11 13 15 16 15 14 12 10 9 9 10 10 9 8 9 12 14 15 18 20 20 18 16 13 10 7 6 6 5 5 6 6 5 4 5 6 6 6 6 7 7 7 7 8 11 12 12 11 10 9 9 12 15 18 20 21 20 18 16 14 12 10 9 9 8 7 6 6 7 8 9 10 11 11
Height
5792 5792 5794 5795 5796 5797 5798 5798 5799 5800 5800 5800 5800 5800 5800 5800 5800 5800 5799 5799 5798 5798 5798 5797 5796 5796 5796 5794 5794 5793 5792 5792 5790 5790 5788 5788 5786 5786 5784 5783 5782 5780 5778 5777 5776 5774 5772 5771 5769 5766 5764 5762 5760 5758 5755 5752 5750 5748 5744 5742 5740 5736 5734 5730 5728 5727 5724 5720 5715 5712 5710 5708 5704 5700 5696 5694 5690 5688 5684 5680 5675 5670 5668 5667 5661 5654 5654
5792 5794 5794 5796 5796 5797 5798 5798 5798 5799 5799 5800 5800 5800 5800 5800 5799 5799 5798 5798 5798 5798 5797 5796 5796 5795 5794 5794 5792 5792 5791 5790 5789 5788 5787 5786 5784 5783 5782 5780 5779 5778 5776 5774 5772 5770 5769 5768 5766 5763 5760 5758 5756 5754 5751 5748 5746 5743 5740 5738 5735 5732 5729 5725 5722 5720 5718 5716 5712 5709 5707 5704 5700 5696 5693 5690 5687 5684 5680 5677 5672 5667 5664 5662 5658 5652 5649
5793 5794 5795 5796 5797 5798 5798 5798 5798 5798 5799 5799 5799 5799 5799 5799 5798 5798 5798 5798 5797 5796 5796 5796 5794 5794 5793 5792 5791 5790 5790 5788 5788 5786 5785 5784 5782 5781 5780 5778 5776 5774 5773 5772 5770 5768 5766 5764 5762 5760 5756 5754 5752 5750 5746 5744 5741 5738 5736 5733 5730 5728 5726 5721 5718 5714 5710 5708 5706 5704 5702 5700 5697 5694 5690 5686 5684 5680 5676 5672 5668 5663 5658 5656 5653 5650 5646
5794 5795 5796 5796 5797 5798 5798 5798 5798 5798 5798 5798 5798 5798 5798 5798 5798 5798 5797 5797 5796 5796 5795 5794 5794 5792 5792 5790 5790 5789 5788 5786 5786 5784 5782 5782 5780 5778 5777 5775 5774 5772 5770 5769 5767 5765 5762 5760 5758 5756 5753 5750 5748 5745 5742 5739 5736 5734 5731 5728 5726 5725 5722 5718 5715 5711 5706 5702 5700 5698 5696 5694 5692 5688 5685 5682 5678 5676 5672 5668 5664 5659 5654 5650 5648 5643 5640
5794 5795 5796 5796 5797 5798 5798 5798 5798 5798 5798 5798 5798 5798 5798 5798 5798 5797 5796 5796 5796 5794 5794 5793 5792 5791 5790 5789 5788 5787 5786 5784 5784 5782 5780 5779 5778 5776 5774 5772 5771 5769 5768 5766 5764 5762 5760 5757 5754 5752 5749 5746 5743 5740 5738 5735 5732 5730 5726 5724 5722 5721 5719 5716 5714 5710 5704 5700 5697 5694 5690 5688 5685 5682 5680 5676 5673 5670 5666 5663 5659 5654 5649 5646 5644 5637 5632
5794 5796 5796 5796 5797 5798 5798 5798 5798 5798 5798 5798 5798 5798 5798 5797 5796 5796 5796 5795 5794 5794 5792 5792 5790 5790 5788 5788 5786 5785 5784 5782 5781 5780 5778 5776 5775 5774 5772 5770 5768 5766 5764 5762 5760 5758 5756 5754 5750 5748 5744 5742 5738 5736 5734 5730 5728 5726 5723 5720 5718 5716 5715 5712 5711 5708 5702 5697 5694 5690 5686 5684 5680 5676 5674 5671 5668 5664 5661 5658 5654 5650 5644 5640 5636 5632 5626
5795 5796 5796 5797 5798 5798 5798 5798 5798 5798 5798 5798 5798 5798 5797 5796 5796 5796 5794 5794 5793 5792 5791 5790 5789 5788 5786 5786 5784 5783 5782 5780 5779 5778 5776 5774 5772 5771 5769 5767 5765 5763 5761 5759 5756 5754 5752 5750 5746 5744 5740 5738 5734 5732 5730 5727 5724 5722 5720 5717 5714 5712 5710 5708 5707 5706 5700 5695 5691 5688 5684 5680 5676 5673 5670 5666 5662 5658 5656 5652 5648 5644 5638 5634 5630 5627 5623
5796 5796 5797 5798 5798 5798 5798 5798 5798 5798 5798 5798 5798 5797 5796 5796 5795 5794 5794 5792 5792 5790 5790 5788 5787 5786 5784 5784 5782 5781 5780 5778 5776 5775 5774 5772 5770 5768 5766 5764 5762 5760 5758 5755 5752 5750 5748 5745 5742 5740 5736 5734 5730 5728 5726 5724 5722 5718 5716 5714 5710 5708 5706 5704 5702 5701 5698 5692 5688 5685 5680 5676 5673 5669 5666 5662 5658 5654 5650 5646 5643 5638 5634 5628 5624 5620 5618
5796 5797 5798 5798 5798 5798 5798 5798 5798 5798 5798 5797 5796 5796 5796 5795 5794 5793 5792 5791 5790 5789 5788 5786 5785 5784 5783 5782 5780 5779 5778 5776 5774 5772 5770 5769 5767 5765 5762 5760 5758 5756 5754 5751 5748 5746 5743 5740 5738 5735 5732 5730 5727 5725 5722 5720 5718 5716 5712 5710 5706 5703 5701 5698 5696 5694 5693 5689 5684 5682 5677 5672 5668 5665 5661 5658 5653 5648 5644 5640 5636 5632 5627 5623 5618 5613 5610
5797 5798 5798 5798 5798 5798 5798 5798 5798 5797 5797 5796 5796 5795 5794 5794 5792 5792 5790 5790 5788 5787 5786 5784 5784 5782 5781 5780 5778 5776 5775 5774 5772 5770 5768 5766 5764 5762 5759 5756 5754 5752 5749 5746 5744 5742 5739 5736 5734 5732 5728 5726 5724 5721 5719 5716 5714 5712 5709 5706 5703 5700 5696 5694 5690 5688 5688 5684 5680 5676 5672 5668 5664 5660 5656 5652 5648 5643 5638 5634 5630 5626 5619 5614 5610 5606 5600
5798 5798 5798 5798 5798 5798 5797 5797 5796 5796 5796 5796 5794 5794 5793 5792 5791 5790 5789 5788 5786 5786 5784 5783 5782 5780 5778 5777 5776 5774 5772 5770 5768 5766 5764 5762 5760 5758 5755 5752 5750 5748 5745 5742 5740 5738 5736 5732 5730 5728 5725 5723 5720 5718 5716 5713 5710 5708 5705 5702 5700 5696 5692 5690 5686 5683 5682 5678 5675 5672 5667 5662 5658 5655 5651 5646 5642 5638 5634 5629 5624 5618 5612 5606 5602 5599 5595
5798 5798 5798 5798 5798 5797 5797 5796 5796 5796 5795 5794 5794 5792 5792 5790 5790 5788 5788 5786 5785 5784 5782 5781 5780 5778 5776 5774 5772 5771 5769 5767 5764 5762 5760 5758 5756 5753 5751 5748 5746 5744 5741 5739 5736 5734 5732 5730 5727 5724 5722 5720 5718 5714 5712 5710 5707 5704 5702 5698 5696 5692 5689 5686 5682 5678 5676 5672 5669 5665 5660 5656 5652 5648 5644 5640 5636 5632 5628 5624 5618 5611 5606 5602 5597 5592 5588
5798 5798 5798 5798 5797 5796 5796 5796 5796 5794 5794 5793 5792 5792 5790 5790 5788 5787 5786 5784 5783 5782 5780 5779 5777 5776 5774 5772 5770 5768 5766 5763 5760 5758 5756 5754 5752 5749 5747 5744 5742 5740 5738 5736 5734 5731 5729 5726 5724 5722 5720 5716 5714 5712 5709 5706 5704 5701 5698 5696 5692 5689 5686 5682 5678 5674 5670 5667 5664 5659 5654 5650 5646 5643 5639 5635 5630 5626 5622 5620 5616 5606 5600 5596 5590 5586 5580
5798 5798 5798 5797 5796 5796 5796 5795 5794 5794 5793 5792 5792 5790 5790 5788 5787 5786 5784 5782 5781 5780 5778 5776 5774 5772 5770 5768 5766 5764 5762 5759 5756 5754 5752 5750 5748 5746 5744 5742 5739 5737 5735 5732 5730 5728 5726 5724 5722 5720 5717 5714 5712 5709 5706 5704 5701 5698 5696 5692 5688 5685 5681 5677 5673 5670 5666 5662 5659 5654 5650 5646 5642 5638 5633 5628 5624 5618 5614 5612 5610 5602 5594 5588 5583 5578 5574
5798 5798 5797 5797 5796 5796 5796 5795 5794 5793 5792 5792 5790 5789 5788 5786 5785 5784 5782 5780 5779 5778 5776 5774 5772 5770 5768 5765 5762 5760 5758 5756 5753 5751 5749 5746 5744 5742 5740 5738 5736 5734 5732 5730 5728 5726 5723 5720 5718 5716 5714 5712 5709 5706 5704 5701 5698 5695 5692 5688 5684 5680 5677 5673 5668 5665 5661 5657 5654 5649 5644 5640 5636 5632 5626 5621 5616 5612 5606 5603 5601 5596 5588 5582 5576 5570 5566
5798 5798 5798 5797 5796 5796 5795 5794 5794 5792 5791 5790 5788 5788 5786 5784 5783 5782 5780 5778 5776 5775 5773 5771 5769 5766 5764 5762 5759 5757 5755 5752 5750 5748 5746 5744 5742 5740 5738 5736 5734 5732 5730 5727 5725 5722 5720 5718 5716 5713 5710 5708 5706 5703 5700 5698 5694 5692 5688 5684 5680 5676 5673 5669 5665 5661 5657 5652 5648 5643 5638 5635 5631 5626 5622 5616 5612 5608 5602 5598 5594 5589 5582 5574 5568 5564 5557
5798 5798 5797 5796 5796 5795 5794 5793 5792 5790 5790 5788 5787 5786 5784 5783 5782 5780 5778 5776 5774 5772 5770 5768 5766 5763 5760 5758 5756 5754 5752 5750 5748 5746 5744 5742 5740 5738 5736 5734 5731 5729 5726 5724 5722 5720 5718 5715 5713 5711 5708 5705 5702 5699 5697 5694 5691 5688 5684 5680 5676 5672 5669 5665 5660 5656 5652 5648 5644 5638 5634 5630 5626 5622 5617 5612 5606 5601 5595 5590 5587 5584 5578 5568 5558 5553 5548
5798 5798 5797 5796 5795 5794 5793 5792 5790 5789 5788 5786 5786 5784 5782 5781 5780 5778 5776 5774 5772 5770 5767 5765 5762 5760 5758 5756 5754 5752 5750 5748 5746 5744 5742 5740 5738 5736 5733 5731 5729 5726 5724 5722 5720 5718 5716 5712 5710 5708 5705 5702 5699 5696 5692 5690 5686 5683 5679 5676 5672 5668 5664 5660 5656 5652 5648 5644 5639 5634 5629 5625 5621 5616 5611 5606 5602 5596 5590 5583 5576 5572 5568 5560 5550 5542 5536
5798 5797 5796 5795 5794 5792 5792 5790 5789 5788 5786 5785 5784 5782 5780 5779 5777 5775 5773 5771 5768 5766 5764 5762 5760 5758 5756 5754 5752 5750 5748 5746 5744 5742 5740 5738 5736 5733 5731 5729 5727 5724 5722 5720 5718 5716 5713 5710 5707 5704 5702 5698 5695 5692 5688 5684 5682 5678 5674 5670 5667 5663 5659 5655 5651 5647 5643 5638 5634 5630 5625 5621 5616 5610 5604 5598 5594 5588 5582 5576 5570 5560 5554 5550 5544 5536 5529
5797 5796 5795 5794 5792 5791 5790 5788 5788 5786 5784 5783 5782 5780 5778 5776 5774 5772 5770 5768 5766 5763 5761 5759 5757 5755 5754 5752 5750 5748 5746 5744 5742 5740 5738 5736 5733 5731 5729 5727 5725 5722 5720 5718 5715 5712 5710 5707 5704 5700 5697 5694 5691 5688 5684 5680 5676 5674 5670 5666 5662 5658 5654 5650 5646 5642 5638 5634 5628 5624 5620 5615 5610 5604 5598 5591 5584 5577 5570 5567 5564 5557 5548 5542 5536 5530 5523
5796 5794 5794 5792 5790 5790 5788 5787 5786 5784 5782 5781 5779 5778 5776 5774 5771 5769 5767 5764 5762 5760 5758 5756 5755 5753 5751 5750 5748 5746 5744 5742 5740 5738 5736 5734 5731 5729 5727 5724 5722 5720 5718 5715 5712 5710 5706 5704 5700 5696 5693 5690 5686 5684 5680 5676 5672 5670 5666 5662 5658 5654 5650 5645 5640 5637 5634 5629 5624 5618 5614 5608 5602 5596 5590 5584 5576 5569 5562 5557 5554 5551 5544 5536 5529 5523 5515
5794 5793 5792 5790 5789 5788 5786 5784 5783 5782 5780 5778 5776 5774 5772 5770 5768 5766 5764 5762 5760 5758 5756 5754 5753 5751 5749 5747 5746 5744 5742 5740 5738 5736 5734 5731 5729 5727 5724 5722 5720 5717 5714 5712 5709 5706 5703 5700 5696 5693 5690 5686 5683 5680 5676 5672 5668 5665 5662 5658 5653 5649 5645 5641 5637 5632 5628 5623 5619 5614 5608 5604 5598 5590 5585 5580 5574 5566 5558 5550 5544 5539 5534 5526 5518 5510 5502
5793 5792 5790 5788 5787 5786 5784 5782 5780 5778 5777 5775 5773 5771 5769 5767 5766 5764 5762 5760 5758 5756 5754 5752 5750 5749 5747 5745 5744 5742 5740 5738 5736 5734 5732 5729 5727 5724 5722 5720 5717 5714 5712 5708 5706 5703 5700 5696 5693 5690 5686 5682 5679 5676 5672 5668 5665 5661 5658 5654 5650 5645 5641 5636 5632 5628 5624 5618 5614 5610 5606 5601 5595 5589 5583 5577 5571 5563 5555 5547 5538 5530 5522 5513 5504 5494 5486
5792 5790 5788 5786 5784 5783 5781 5780 5778 5776 5774 5772 5770 5768 5767 5765 5763 5761 5760 5758 5756 5754 5752 5750 5749 5747 5745 5743 5742 5740 5738 5736 5734 5732 5729 5727 5724 5722 5720 5717 5714 5712 5709 5706 5702 5700 5696 5693 5690 5686 5682 5679 5676 5672 5668 5664 5661 5657 5653 5649 5645 5641 5637 5633 5629 5625 5622 5616 5612 5608 5603 5598 5592 5586 5580 5574 5568 5560 5550 5540 5530 5521 5512 5503 5494 5485 5476
5790 5788 5786 5784 5782 5780 5778 5776 5775 5774 5772 5770 5768 5766 5765 5763 5761 5760 5758 5756 5754 5752 5750 5749 5747 5745 5744 5742 5740 5738 5736 5734 5732 5729 5727 5724 5722 5720 5717 5714 5712 5708 5706 5702 5700 5696 5692 5690 5686 5682 5679 5676 5672 5668 5664 5660 5657 5653 5650 5646 5642 5638 5634 5630 5627 5622 5618 5614 5609 5604 5600 5594 5586 5579 5572 5565 5558 5552 5542 5531 5520 5512 5504 5496 5487 5478 5468
5789 5786 5784 5782 5780 5778 5776 5775 5774 5772 5770 5768 5767 5765 5763 5762 5760 5758 5756 5754 5752 5751 5749 5747 5746 5744 5742 5740 5738 5736 5734 5732 5729 5726 5724 5722 5720 5717 5714 5712 5708 5706 5702 5700 5696 5693 5690 5686 5682 5679 5675 5672 5668 5664 5660 5657 5653 5649 5646 5642 5638 5634 5630 5626 5622 5619 5614 5608 5604 5600 5595 5590 5581 5571 5562 5555 5548 5542 5534 5524 5514 5505 5496 5488 5480 5472 5462
5788 5786 5783 5781 5779 5777 5776 5774 5772 5770 5769 5767 5766 5764 5762 5760 5758 5756 5755 5753 5752 5750 5748 5746 5744 5742 5740 5738 5736 5734 5732 5729 5726 5724 5722 5719 5716 5714 5711 5708 5706 5702 5700 5696 5693 5690 5686 5682 5679 5676 5672 5668 5664 5660 5657 5654 5650 5645 5642 5638 5634 5630 5626 5622 5617 5613 5608 5601 5594 5588 5582 5579 5573 5564 5556 5548 5542 5535 5527 5518 5508 5498 5488 5478 5470 5464 5458
5787 5784 5782 5780 5778 5776 5774 5773 5771 5770 5768 5766 5764 5762 5760 5758 5757 5755 5754 5752 5750 5748 5746 5744 5742 5740 5738 5736 5734 5731 5729 5726 5724 5722 5719 5716 5714 5711 5708 5706 5702 5700 5696 5693 5690 5686 5682 5679 5675 5672 5668 5664 5660 5657 5653 5650 5646 5641 5637 5634 5630 5625 5620 5616 5610 5604 5598 5592 5584 5577 5570 5566 5562 5556 5548 5539 5532 5526 5518 5508 5498 5488 5478 5467 5458 5450 5445
5786 5784 5782 5780 5778 5776 5774 5772 5770 5768 5766 5765 5763 5761 5760 5758 5756 5754 5752 5750 5748 5746 5744 5742 5740 5738 5736 5734 5732 5729 5726 5724 5722 5719 5716 5714 5711 5708 5706 5702 5700 5696 5693 5690 5686 5682 5679 5675 5672 5668 5664 5660 5656 5653 5650 5645 5642 5638 5634 5629 5624 5619 5614 5608 5602 5598 5592 5585 5578 5570 5561 5554 5551 5546 5538 5529 5521 5514 5506 5497 5486 5476 5467 5457 5448 5440 5432
5786 5784 5782 5780 5778 5776 5774 5772 5770 5768 5766 5764 5762 5760 5758 5756 5754 5752 5750 5748 5746 5744 5742 5740 5738 5736 5734 5731 5729 5726 5724 5722 5719 5716 5714 5710 5708 5705 5702 5700 5696 5693 5690 5686 5682 5679 5675 5672 5668 5664 5660 5657 5653 5650 5646 5642 5638 5634 5629 5624 5619 5614 5608 5602 5596 5592 5586 5580 5574 5565 5552 5542 5538 5534 5529 5520 5511 5502 5494 5485 5475 5466 5457 5448 5440 5434 5426
5786 5784 5782 5780 5778 5776 5774 5772 5770 5768 5766 5764 5762 5760 5758 5755 5753 5751 5749 5746 5744 5742 5740 5738 5736 5734 5732 5729 5726 5724 5722 5718 5716 5714 5710 5708 5705 5702 5700 5696 5693 5690 5686 5682 5679 5676 5672 5668 5664 5660 5656 5653 5650 5646 5642 5638 5634 5629 5624 5620 5614 5609 5604 5598 5592 5586 5578 5574 5570 5565 5554 5539 5528 5522 5516 5508 5498 5489 5481 5474 5464 5456 5448 5440 5432 5425 5419
5786 5784 5782 5780 5778 5776 5774 5772 5769 5767 5765 5762 5760 5758 5756 5754 5752 5750 5747 5745 5743 5740 5738 5736 5734 5732 5729 5726 5724 5722 5719 5716 5714 5711 5708 5705 5702 5700 5696 5693 5690 5686 5683 5679 5676 5672 5668 5664 5660 5656 5653 5650 5646 5642 5638 5634 5630 5625 5620 5616 5610 5605 5599 5593 5588 5580 5572 5564 5560 5559 5554 5542 5528 5515 5505 5496 5486 5477 5470 5464 5458 5450 5443 5437 5430 5422 5414
5786 5784 5782 5780 5778 5776 5773 5770 5768 5766 5764 5762 5760 5757 5754 5752 5750 5748 5746 5743 5741 5738 5736 5734 5732 5729 5726 5724 5722 5719 5716 5714 5711 5708 5706 5702 5700 5696 5693 5690 5686 5682 5680 5676 5672 5668 5664 5660 5656 5653 5650 5646 5642 5638 5633 5628 5624 5620 5616 5611 5606 5600 5594 5587 5581 5575 5568 5560 5551 5544 5539 5532 5522 5510 5498 5488 5479 5470 5464 5458 5454 5448 5442 5435 5429 5422 5414
5786 5784 5782 5780 5777 5775 5772 5770 5768 5765 5762 5760 5758 5756 5753 5750 5748 5746 5744 5741 5738 5736 5734 5732 5730 5727 5724 5722 5720 5717 5714 5712 5708 5706 5703 5700 5696 5693 5690 5686 5683 5679 5676 5672 5668 5664 5660 5657 5653 5650 5646 5642 5637 5633 5629 5624 5620 5616 5611 5606 5601 5596 5590 5584 5576 5568 5560 5553 5544 5534 5524 5514 5506 5496 5489 5482 5474 5467 5460 5454 5448 5444 5438 5432 5426 5420 5412
5786 5784 5782 5780 5777 5774 5772 5770 5766 5764 5762 5759 5756 5754 5751 5748 5746 5744 5742 5739 5737 5734 5732 5730 5728 5725 5722 5720 5717 5714 5712 5710 5706 5704 5700 5697 5694 5690 5686 5683 5680 5676 5672 5668 5664 5660 5656 5652 5649 5645 5641 5637 5633 5628 5624 5620 5616 5610 5605 5600 5595 5590 5586 5580 5574 5564 5553 5544 5535 5526 5515 5505 5495 5486 5479 5474 5469 5464 5458 5451 5444 5438 5432 5427 5420 5414 5407
5786 5784 5782 5779 5776 5774 5771 5768 5766 5763 5760 5757 5754 5752 5749 5746 5744 5742 5740 5738 5735 5732 5730 5728 5726 5724 5721 5718 5716 5713 5710 5707 5704 5701 5698 5694 5690 5687 5684 5680 5676 5672 5668 5664 5660 5656 5652 5648 5644 5640 5636 5632 5628 5624 5619 5614 5609 5604 5599 5594 5589 5584 5578 5572 5566 5559 5548 5536 5526 5516 5506 5497 5488 5480 5472 5467 5462 5456 5451 5446 5440 5433 5427 5420 5414 5408 5400
5787 5784 5782 5779 5776 5774 5770 5768 5764 5762 5758 5756 5752 5750 5748 5745 5742 5740 5738 5736 5734 5731 5728 5726 5724 5721 5719 5716 5714 5710 5708 5705 5702 5698 5695 5692 5688 5684 5680 5676 5672 5668 5664 5660 5656 5652 5648 5644 5640 5636 5632 5627 5622 5618 5613 5608 5602 5598 5594 5588 5582 5577 5570 5564 5558 5552 5544 5534 5524 5514 5504 5494 5484 5474 5466 5460 5454 5448 5443 5437 5431 5425 5418 5412 5406 5400 5392
5788 5784 5782 5779 5776 5773 5770 5767 5764 5760 5758 5754 5751 5748 5746 5744 5741 5739 5736 5734 5732 5729 5726 5724 5722 5719 5716 5714 5712 5708 5706 5702 5699 5696 5692 5688 5684 5680 5676 5672 5669 5664 5660 5656 5652 5648 5644 5640 5636 5632 5627 5622 5618 5612 5608 5602 5597 5592 5588 5582 5576 5570 5562 5556 5548 5542 5536 5528 5520 5512 5502 5494 5485 5476 5466 5458 5450 5444 5437 5431 5424 5418 5412 5406 5399 5392 5385
5788 5785 5782 5779 5776 5772 5770 5766 5763 5760 5756 5753 5750 5747 5744 5742 5740 5737 5734 5732 5730 5728 5725 5722 5720 5718 5714 5712 5709 5706 5703 5700 5696 5692 5688 5684 5681 5677 5672 5668 5664 5660 5656 5652 5648 5644 5640 5636 5632 5627 5622 5617 5612 5608 5603 5598 5592 5587 5582 5576 5569 5562 5554 5547 5540 5532 5524 5515 5506 5498 5490 5482 5476 5471 5464 5457 5449 5441 5434 5426 5420 5412 5406 5400 5393 5386 5380
5788 5785 5782 5779 5776 5772 5769 5766 5762 5759 5756 5752 5749 5746 5744 5740 5738 5735 5732 5730 5728 5726 5724 5721 5718 5716 5713 5710 5706 5704 5700 5696 5693 5689 5685 5682 5678 5674 5669 5665 5660 5656 5652 5648 5644 5640 5636 5632 5628 5623 5618 5613 5608 5604 5599 5594 5588 5582 5576 5570 5563 5556 5548 5540 5532 5524 5514 5506 5496 5488 5480 5473 5466 5461 5456 5450 5444 5437 5430 5423 5415 5408 5400 5394 5386 5380 5372
5788 5785 5782 5778 5776 5772 5769 5766 5762 5758 5755 5752 5748 5746 5742 5740 5736 5734 5732 5729 5726 5724 5722 5719 5716 5714 5710 5707 5704 5700 5697 5694 5690 5686 5682 5678 5674 5670 5665 5660 5656 5652 5648 5644 5640 5636 5632 5628 5623 5618 5614 5610 5605 5600 5595 5589 5582 5577 5571 5565 5558 5550 5542 5534 5526 5517 5508 5500 5491 5484 5476 5468 5462 5455 5449 5444 5437 5430 5424 5417 5410 5402 5395 5388 5380 5373 5366
5787 5784 5782 5778 5775 5772 5768 5765 5762 5758 5754 5751 5748 5745 5742 5739 5736 5733 5730 5728 5725 5722 5720 5717 5714 5711 5708 5704 5701 5698 5694 5690 5686 5682 5678 5674 5670 5666 5661 5656 5652 5648 5644 5640 5636 5632 5628 5624 5620 5615 5610 5606 5602 5596 5591 5585 5579 5572 5566 5560 5552 5544 5536 5528 5520 5512 5504 5495 5487 5479 5472 5465 5458 5450 5444 5438 5432 5424 5418 5410 5404 5396 5388 5382 5374 5366 5360
5786 5784 5780 5778 5774 5771 5768 5764 5761 5758 5754 5751 5748 5744 5741 5738 5735 5732 5730 5726 5724 5720 5718 5714 5712 5708 5705 5702 5698 5694 5690 5687 5682 5678 5674 5670 5665 5661 5657 5652 5648 5644 5640 5637 5633 5629 5625 5621 5616 5612 5607 5602 5597 5592 5586 5580 5574 5568 5560 5554 5546 5538 5530 5522 5514 5506 5498 5490 5482 5474 5468 5461 5454 5446 5439 5432 5426 5420 5412 5405 5398 5390 5382 5374 5367 5359 5352
5785 5782 5780 5776 5774 5770 5768 5764 5761 5758 5754 5750 5746 5744 5740 5736 5734 5730 5728 5724 5722 5718 5715 5712 5708 5705 5702 5698 5694 5690 5687 5683 5678 5674 5670 5665 5661 5656 5652 5648 5644 5641 5637 5634 5630 5626 5622 5618 5614 5609 5604 5598 5593 5588 5582 5576 5570 5563 5556 5548 5541 5533 5525 5516 5509 5502 5494 5486 5478 5471 5464 5457 5450 5442 5434 5428 5422 5416 5408 5401 5392 5384 5376 5368 5360 5352 5343
5784 5781 5778 5776 5773 5770 5766 5763 5760 5756 5753 5750 5746 5742 5738 5735 5732 5728 5725 5722 5718 5716 5712 5709 5706 5702 5698 5695 5691 5687 5683 5678 5674 5670 5665 5661 5656 5652 5648 5644 5641 5638 5634 5630 5626 5622 5618 5614 5610 5604 5600 5594 5589 5584 5578 5572 5565 5558 5551 5544 5536 5528 5520 5512 5505 5498 5490 5482 5475 5468 5460 5454 5446 5439 5431 5423 5416 5410 5402 5396 5388 5380 5372 5364 5355 5346 5337
5782 5780 5777 5774 5771 5768 5764 5762 5758 5754 5751 5748 5744 5740 5736 5733 5730 5726 5722 5720 5716 5712 5709 5706 5702 5698 5695 5691 5687 5683 5678 5674 5670 5665 5661 5656 5652 5648 5644 5641 5638 5634 5630 5626 5622 5619 5615 5610 5605 5600 5595 5590 5584 5578 5573 5567 5560 5553 5546 5538 5531 5524 5516 5508 5500 5493 5486 5478 5470 5463 5456 5448 5441 5434 5426 5418 5411 5404 5397 5390 5382 5374 5367 5360 5352 5344 5334
5781 5778 5775 5772 5769 5766 5762 5760 5756 5753 5750 5746 5742 5738 5734 5730 5727 5724 5720 5716 5713 5710 5706 5702 5698 5695 5692 5687 5683 5678 5674 5670 5665 5660 5656 5652 5648 5644 5640 5637 5634 5630 5626 5622 5618 5615 5610 5606 5600 5595 5590 5584 5579 5574 5568 5562 5554 5547 5540 5533 5526 5519 5511 5503 5496 5488 5480 5473 5465 5458 5450 5443 5436 5430 5422 5414 5406 5399 5392 5385 5377 5369 5361 5354 5346 5338 5330
5779 5776 5773 5770 5767 5764 5761 5758 5754 5751 5747 5744 5740 5736 5732 5728 5724 5720 5717 5714 5710 5706 5702 5699 5695 5691 5687 5683 5678 5674 5670 5666 5661 5656 5652 5648 5644 5640 5636 5633 5629 5626 5622 5618 5614 5610 5606 5601 5596 5590 5585 5580 5574 5568 5562 5556 5549 5542 5535 5528 5522 5514 5507 5499 5491 5483 5475 5468 5460 5452 5445 5438 5431 5424 5418 5410 5402 5394 5387 5380 5372 5364 5356 5348 5340 5332 5324
5777 5774 5771 5768 5765 5762 5759 5756 5752 5748 5744 5741 5737 5733 5730 5726 5722 5718 5714 5710 5706 5703 5699 5695 5691 5687 5682 5678 5674 5670 5666 5661 5656 5652 5648 5644 5640 5636 5632 5629 5626 5622 5618 5614 5610 5606 5602 5596 5592 5586 5580 5574 5568 5563 5556 5550 5544 5536 5530 5522 5516 5509 5502 5494 5486 5477 5469 5462 5454 5447 5440 5433 5426 5420 5413 5406 5398 5390 5382 5375 5367 5358 5350 5342 5334 5327 5319
5775 5772 5769 5766 5763 5760 5756 5753 5750 5746 5742 5738 5734 5730 5726 5722 5718 5714 5710 5706 5702 5699 5695 5691 5687 5682 5678 5674 5670 5666 5662 5657 5653 5648 5644 5640 5636 5632 5628 5625 5622 5618 5614 5610 5606 5602 5598 5592 5588 5582 5576 5570 5564 5558 5551 5544 5538 5530 5524 5516 5510 5502 5496 5488 5480 5472 5464 5456 5450 5442 5434 5428 5421 5414 5408 5402 5394 5386 5377 5369 5362 5354 5345 5336 5328 5320 5312
5772 5770 5766 5764 5760 5757 5754 5750 5746 5743 5739 5736 5732 5727 5723 5719 5714 5710 5706 5703 5699 5695 5691 5687 5683 5678 5674 5670 5666 5662 5657 5653 5649 5644 5640 5637 5633 5629 5625 5621 5618 5614 5610 5606 5602 5598 5593 5588 5583 5578 5572 5565 5559 5552 5546 5539 5532 5525 5518 5511 5504 5497 5490 5482 5475 5466 5458 5451 5444 5437 5430 5422 5416 5410 5402 5396 5390 5382 5374 5365 5358 5350 5342 5332 5322 5314 5305
5770 5766 5764 5760 5758 5754 5750 5747 5744 5740 5736 5732 5728 5724 5719 5715 5711 5707 5703 5699 5695 5691 5687 5683 5678 5674 5670 5666 5662 5657 5652 5648 5644 5640 5637 5633 5629 5626 5622 5618 5614 5610 5606 5602 5598 5594 5588 5584 5578 5572 5566 5560 5554 5548 5541 5534 5527 5520 5513 5506 5499 5492 5485 5478 5470 5462 5454 5446 5439 5432 5426 5418 5411 5404 5398 5392 5385 5378 5372 5364 5356 5348 5339 5330 5319 5308 5299